カタログに戻る

STARLINK-31303

運用中通信VLEO
NORAD 59239·PAYLOAD·🇺🇸 United States

打ち上げ Mar 16, 2024 から Cape Canaveral Space Force Station

Loading…

次のパス (今後24時間)

TLE

最新Source: CelesTrak SupGP

元期: Sep 15, 2026, 02:08 UTC

1 59239C 24049J   26258.08937500  .00065692  00000+0  23818-2 0  2581
2 59239  43.0021 143.0653 0001320 286.3075 193.5453 15.27512060    19

AllMySatでSTARLINK-31303をリアルタイム追跡

Download on the App Store